User: anonymous   Login
Location: Newark
(7.0858°N, 171.3717°E)
Time: 22:57:43
(UTC+00:00)
Language:

Explorer 11/Cluster Stage 4 - Orbit

View from above orbital plane
View from above orbital plane
View from above satellite
View from above satellite

Ground track
Ground track

The orbit data is extracted from the following two-line orbital elements,

1   107U 61013A   20340.53926546  .00000546  00000-0  50698-4 0  9995
2   107  28.7911 295.1464 0546408 223.9978 131.5833 14.09057708989928
Epoch (UTC): 05 December 2020 12:56:32
Eccentricity: 0.0546408
inclination: 28.7911°
perigee height: 467 km
apogee height: 1258 km
right ascension of ascending node: 295.1464°
argument of perigee: 223.9978°
revolutions per day: 14.09057708
mean anomaly at epoch: 131.5833°
orbit number at epoch: 98992

The dashed part of the orbit path shows where the satellite is in the earth's shadow,  

DLR